Vertical_Velocity
-1 -1 -1 -2 -1 -1 -0 -0 -1 -0 -1 -1 0 -1 -2 0 -2 -3 -2 -2 -2 -1 -1 -2 -0 -1 -2 -1 -1 -0 1 -1 2 6 -8 4 -7 -0 -5 -3 2 -5 -2 -4 -5
-1 -1 -1 -3 -2 -1 -1 -1 -0 2 -1 -0 1 -1 -1 -1 0 -2 -1 1 -0 1 -0 -0 -1 -0 -1 0 -1 -0 -2 6 -3 -3 -2 0 -7 -4 -5 9 2 1 -1 -3 -2
-1 -1 -2 -1 -0 -1 -1 -2 -1 0 -2 -1 -1 -1 -1 -1 0 -3 -0 -1 1 0 0 0 0 -0 2 -1 -2 -1 -3 -0 0 -3 -3 6 2 -3 -14 11 9 2 -3 -0 -3
-1 -1 -2 -1 -1 -1 -0 -1 1 -1 -1 -0 -1 -0 -0 -1 -1 1 -1 -0 -1 -2 -4 -1 0 -1 -1 -1 -2 -2 -0 -0 5 1 -2 -4 -0 -1 -8 -5 5 3 3 5 -1
-1 -1 -1 -1 -0 -1 -1 -1 -1 -2 -2 -2 -1 -1 -1 0 -2 -0 -0 0 -0 -1 -0 -1 -1 1 -2 3 -2 -3 7 3 -1 1 -6 -2 3 6 13 -3 -3 -2 4 2 1
-2 0 -0 -1 -0 0 -1 -1 0 -1 -2 -2 -1 -2 -2 -2 -2 -1 -0 -1 -1 -1 -0 -1 -0 -3 -2 -3 -2 -2 5 0 1 -0 -3 -9 -5 1 11 -2 -1 -4 -3 -3 2
-2 -2 -1 -0 -0 1 0 -1 -0 -1 -1 -1 -1 -2 -2 -2 -1 -1 -1 -1 0 -0 -2 -2 -2 -1 -1 2 -4 -3 -6 0 3 -4 3 1 -9 -1 -3 -1 -4 -4 -6 -7 -4
-1 -2 -1 -0 -1 -0 -0 -1 0 0 0 0 -0 -1 -1 -0 0 -2 -1 -1 -1 -2 -1 0 -0 -2 -6 -4 3 -4 -0 -18 1 4 21 1 -20 7 7 3 1 -1 -2 -3 -2
-2 -1 -2 -0 0 -1 -2 -2 -2 -2 -3 -2 -1 -1 -1 0 -1 -1 -2 -2 -1 -1 -1 -1 -0 -0 -2 -2 -7 13 -3 -11 -10 1 0 -2 -14 -8 1 -4 -9 -4 -4 -2 -6
-1 -0 -2 -3 -3 -2 -2 -2 -2 -0 -2 -2 -2 -2 2 -2 -1 -1 -1 -0 0 2 -2 1 1 5 4 1 0 -9 -8 -3 -6 -17 7 -0 -5 -16 -15 -1 2 -10 -8 -7 -6
-0 -0 -2 0 -1 -2 -0 0 0 1 -1 -4 -3 0 -0 -1 -2 -2 -2 -3 1 -2 -2 5 -2 -1 2 -0 1 3 -1 -7 -0 -6 -7 4 7 -14 -8 4 8 -1 1 -1 -1
-0 -1 -2 -1 -1 -2 -2 -2 -1 -3 -3 -2 -1 -0 -0 -2 -2 -1 0 0 -2 -6 -3 3 -1 -1 -1 -1 -1 1 -0 -4 -1 -0 -4 1 17 -2 -4 5 15 5 1 -0 1
-1 0 -1 -3 -2 -2 -3 -3 -4 -4 -4 -3 -2 -0 -1 -1 -3 -5 -2 -4 -3 -4 0 -9 -10 -4 -2 -3 1 -6 -6 0 -3 3 9 3 1 17 -9 -3 14 -3 -1 0 0
-2 -2 -2 -0 -2 -2 -2 -3 -3 -2 -2 -4 -2 -3 -3 -2 -2 -0 -1 -4 1 -3 -1 5 -1 -2 -1 -0 1 -3 3 -4 1 -7 -7 -11 -13 7 -12 -11 20 -6 1 -0 -0
-3 -3 -0 1 -1 -2 -2 -4 -3 -1 -4 -4 -1 -1 -3 -2 -1 2 -3 2 -3 1 -3 2 -1 -2 -1 0 -3 4 -4 -12 -7 -3 -1 9 -14 -11 6 -21 -3 -2 -3 0 -1
-1 -1 -1 -1 0 0 -0 0 -0 -0 -1 -1 -1 -2 2 -5 -2 -1 -2 -2 2 -4 -5 -2 -2 -0 -1 -2 -4 -1 6 3 -3 -9 -18 -4 -8 -7 -8 -3 -6 -8 -5 -5 -2
1 -1 -2 -2 -3 -1 0 0 1 -1 1 -1 -0 -1 -2 -3 -2 -6 7 -4 -3 -14 -5 -14 8 1 1 -2 -3 -2 -5 -8 -18 -19 -6 -9 -19 5 1 0 0 -1 -5 -2 -4
-1 0 -1 -0 -3 -3 -1 -2 -3 2 -1 -2 -2 1 -3 -1 7 3 -5 2 -1 -6 -5 -2 -9 -6 -7 -1 2 -3 -2 8 -12 -1 6 33 21 10 4 -1 -1 -2 2 -1 -1
-2 -2 0 -2 -3 -2 -3 -1 -1 2 1 -3 1 -4 8 -5 -9 -10 5 1 0 -1 -5 -15 -10 -6 -7 -3 10 -16 -6 -5 -17 4 -13 -10 -11 -17 1 1 -2 -1 2 -3 -1
-1 -1 -0 -0 -1 -1 -2 -1 -6 -1 -0 -2 -2 4 -8 1 -3 -4 1 -2 4 -1 0 -5 -12 1 -5 -0 2 11 3 -5 -13 -14 -18 19 6 2 -1 -1 -1 3 -0 2 0
-1 -2 -3 -2 -1 1 -1 0 0 -1 -2 -4 -2 -5 1 -9 3 -2 -1 -1 -3 2 3 -8 7 -5 -3 0 -5 -11 -11 -11 -5 2 -1 -19 5 -2 -3 -4 2 1 -3 0 -0
0 0 -0 2 -1 1 -0 -3 1 -1 -2 -8 -5 -4 -4 -3 3 2 -1 -4 -5 -5 -7 -1 -8 -5 -4 1 1 1 -3 -3 -5 8 18 -1 6 -1 -2 -8 3 3 2 -2 -5
-4 -4 -3 -1 1 -2 -2 -3 -1 0 -2 -1 -3 4 2 1 -17 1 2 -1 -3 -3 -7 -1 -12 -8 -8 -9 -6 -2 -6 -11 -14 -8 18 -10 -2 -6 -9 -8 -5 -11 -3 -3 -5
1 -3 -4 -2 -2 -0 0 2 -3 2 3 -4 -2 -1 -4 3 -1 -11 -7 3 -2 -3 -0 -3 3 2 11 6 -9 -6 -2 -2 -7 -0 -6 12 -13 8 -1 2 4 3 4 0 -2
-5 4 -7 -5 -2 -3 -3 -4 0 -4 3 -0 6 -3 -1 -7 1 2 0 -3 5 -3 -2 -1 1 -4 -0 -2 0 5 1 4 -2 -1 -6 -1 -4 -1 -2 -4 -0 -2 0 -2 -0
2 -7 3 2 -0 -1 -5 1 1 -5 -2 5 -3 -2 2 -1 -4 -15 -0 5 5 -8 -2 -11 -3 -5 6 -3 -5 4 -1 -2 2 -4 -5 -2 -4 -4 -0 -5 -4 -2 -0 -1 -0
4 -4 -5 12 0 -2 3 -3 1 -4 4 0 -3 -1 -1 -1 0 1 -2 2 -3 -4 -6 0 -6 -9 7 -5 2 8 2 -1 5 -1 -6 -5 -5 -1 9 -2 -7 5 1 1 3
Height
5851 5849 5849 5848 5847 5846 5845 5843 5842 5840 5838 5837 5835 5833 5831 5828 5826 5823 5821 5819 5817 5814 5813 5812 5810 5809 5808 5807 5806 5805 5805 5803 5802 5801 5798 5798 5794 5797 5792 5793 5793 5790 5789 5786 5787
5850 5849 5848 5846 5845 5844 5843 5841 5840 5838 5836 5835 5833 5831 5829 5827 5824 5822 5819 5817 5815 5813 5811 5809 5807 5805 5804 5803 5802 5801 5800 5800 5798 5795 5792 5791 5788 5787 5785 5786 5783 5782 5780 5779 5777
5849 5848 5846 5844 5843 5842 5841 5839 5837 5835 5834 5832 5830 5827 5826 5824 5822 5819 5817 5814 5811 5810 5808 5806 5804 5802 5802 5800 5799 5797 5794 5793 5791 5787 5784 5785 5783 5779 5776 5777 5778 5776 5773 5770 5768
5848 5847 5845 5844 5842 5841 5839 5837 5835 5833 5831 5829 5827 5825 5823 5821 5820 5816 5814 5812 5810 5807 5805 5802 5799 5798 5797 5796 5793 5792 5786 5784 5787 5781 5779 5778 5777 5773 5767 5765 5766 5765 5762 5759 5756
5848 5846 5845 5843 5841 5839 5837 5835 5832 5830 5828 5826 5824 5822 5820 5818 5816 5814 5811 5809 5806 5804 5801 5799 5797 5794 5792 5789 5786 5782 5783 5779 5778 5776 5773 5768 5764 5762 5762 5759 5755 5752 5749 5747 5745
5847 5846 5844 5842 5839 5837 5835 5833 5831 5828 5826 5823 5821 5819 5817 5816 5813 5810 5808 5805 5803 5800 5797 5795 5792 5789 5787 5784 5781 5777 5774 5773 5769 5764 5763 5762 5756 5753 5750 5746 5743 5740 5736 5733 5731
5845 5844 5841 5840 5838 5836 5834 5831 5829 5826 5823 5820 5818 5816 5814 5813 5810 5807 5805 5803 5801 5798 5795 5791 5788 5785 5780 5777 5772 5771 5766 5761 5762 5758 5756 5751 5747 5742 5738 5733 5728 5724 5720 5717 5714
5844 5841 5839 5838 5836 5834 5832 5829 5826 5824 5821 5818 5816 5813 5811 5809 5806 5804 5802 5799 5796 5793 5789 5787 5783 5779 5775 5771 5768 5764 5760 5755 5753 5749 5746 5741 5734 5731 5725 5718 5713 5708 5703 5698 5692
5842 5840 5837 5836 5834 5832 5830 5827 5824 5821 5819 5816 5814 5811 5809 5806 5804 5801 5798 5795 5792 5788 5785 5781 5777 5774 5769 5765 5760 5757 5753 5748 5742 5736 5732 5726 5719 5718 5712 5704 5696 5690 5685 5680 5675
5841 5839 5836 5834 5831 5829 5826 5824 5821 5818 5815 5813 5810 5809 5806 5803 5800 5797 5794 5791 5787 5783 5779 5775 5771 5767 5761 5757 5752 5747 5742 5736 5730 5727 5722 5716 5707 5702 5697 5688 5678 5673 5666 5659 5653
5838 5836 5834 5831 5828 5826 5823 5820 5819 5817 5812 5810 5807 5805 5801 5799 5796 5793 5789 5786 5781 5777 5772 5768 5763 5758 5754 5749 5744 5739 5734 5728 5722 5716 5711 5702 5693 5682 5678 5671 5663 5653 5645 5636 5627
5836 5833 5830 5828 5825 5822 5820 5817 5815 5813 5810 5807 5804 5800 5797 5795 5792 5788 5785 5781 5775 5770 5765 5763 5757 5752 5747 5742 5737 5731 5726 5718 5712 5704 5696 5687 5679 5665 5660 5654 5645 5632 5621 5610 5600
5832 5830 5828 5825 5823 5820 5817 5814 5812 5809 5807 5804 5799 5796 5793 5791 5787 5783 5779 5774 5769 5765 5760 5755 5751 5745 5739 5733 5726 5719 5713 5705 5697 5689 5679 5671 5664 5650 5641 5634 5623 5610 5597 5584 5574
5828 5827 5825 5823 5821 5817 5814 5811 5808 5805 5803 5800 5796 5793 5789 5785 5782 5777 5773 5769 5764 5758 5752 5747 5741 5734 5728 5722 5715 5709 5701 5692 5682 5673 5664 5655 5644 5633 5619 5611 5602 5583 5570 5559 5546
5825 5823 5820 5818 5816 5814 5811 5807 5804 5801 5798 5795 5792 5787 5782 5779 5774 5770 5765 5761 5756 5750 5745 5739 5732 5725 5718 5711 5704 5696 5687 5678 5669 5658 5650 5636 5624 5611 5598 5585 5577 5560 5546 5533 5522
5821 5818 5815 5813 5811 5808 5806 5803 5799 5797 5792 5790 5786 5781 5778 5773 5768 5763 5759 5754 5748 5742 5736 5729 5721 5715 5707 5700 5692 5684 5676 5666 5653 5642 5632 5621 5606 5590 5575 5560 5546 5535 5523 5513 5505
5816 5814 5811 5808 5806 5803 5800 5797 5795 5790 5787 5783 5778 5774 5771 5766 5761 5756 5752 5746 5739 5732 5726 5719 5713 5705 5698 5688 5680 5671 5661 5651 5640 5624 5612 5597 5583 5571 5555 5540 5527 5518 5509 5501 5494
5812 5810 5808 5804 5801 5798 5796 5793 5789 5785 5781 5777 5772 5769 5764 5759 5755 5749 5743 5737 5729 5722 5715 5708 5701 5695 5687 5679 5669 5660 5651 5640 5624 5614 5603 5588 5567 5552 5537 5525 5513 5506 5499 5491 5484
5807 5805 5803 5800 5797 5794 5791 5787 5783 5778 5775 5770 5766 5761 5758 5752 5746 5740 5735 5728 5720 5713 5706 5698 5691 5684 5675 5668 5658 5646 5637 5625 5611 5601 5582 5566 5546 5532 5522 5511 5503 5496 5490 5483 5476
5801 5799 5797 5794 5791 5788 5785 5780 5775 5771 5767 5762 5758 5754 5747 5743 5737 5731 5725 5718 5712 5704 5697 5689 5680 5673 5665 5657 5648 5638 5626 5608 5593 5577 5561 5553 5535 5524 5508 5499 5492 5488 5482 5475 5468
5795 5793 5790 5788 5785 5781 5777 5774 5769 5764 5760 5756 5750 5745 5741 5734 5728 5722 5716 5710 5703 5696 5688 5679 5672 5663 5653 5644 5632 5622 5610 5597 5582 5566 5543 5528 5520 5509 5499 5491 5485 5480 5473 5467 5459
5788 5786 5783 5781 5778 5774 5771 5766 5763 5757 5753 5749 5743 5737 5731 5725 5719 5714 5708 5700 5694 5687 5678 5670 5660 5651 5642 5631 5620 5609 5597 5582 5567 5555 5535 5517 5510 5497 5489 5482 5477 5471 5464 5458 5450
5781 5778 5776 5772 5770 5767 5764 5759 5754 5750 5745 5740 5735 5729 5722 5716 5710 5705 5698 5692 5685 5677 5667 5660 5650 5639 5630 5621 5608 5596 5582 5568 5553 5538 5528 5506 5499 5486 5481 5475 5469 5463 5458 5452 5444
5772 5771 5769 5766 5762 5759 5756 5753 5747 5743 5737 5731 5726 5720 5713 5707 5700 5695 5689 5683 5674 5667 5658 5650 5641 5630 5621 5607 5593 5582 5567 5551 5537 5523 5510 5503 5488 5485 5475 5471 5465 5458 5453 5445 5435
5764 5760 5759 5757 5755 5750 5747 5744 5739 5733 5729 5723 5717 5710 5704 5697 5692 5686 5679 5672 5666 5657 5649 5641 5632 5620 5611 5598 5585 5571 5556 5541 5525 5512 5498 5490 5482 5475 5469 5463 5457 5449 5443 5435 5428
5753 5752 5749 5747 5744 5741 5738 5735 5730 5724 5719 5713 5706 5699 5693 5687 5682 5675 5669 5661 5655 5647 5638 5631 5621 5610 5601 5587 5574 5562 5544 5528 5513 5500 5489 5481 5476 5468 5463 5457 5450 5443 5437 5429 5421
5739 5739 5739 5737 5733 5731 5728 5724 5719 5714 5709 5702 5696 5690 5684 5679 5673 5666 5659 5652 5643 5635 5627 5619 5609 5600 5591 5576 5561 5547 5534 5518 5502 5489 5479 5474 5468 5463 5458 5452 5443 5437 5430 5423 5414